Regional Weather Roundup
Issued by NWS

Home | Current Version | Previous Version | Graphics & Text | Print | Product List | Glossary On
Versions: 1 2 3 4 5 6 7 8 9 10 11 12 13 14 15 16 17 18 19 20 21 22 23 24 25 26 27 28 29 30 31 32 33 34 35 36 37 38 39 40 41 42 43 44 45 46 47 48 49 50
000
ASUS43 KLOT 281602
RWRIL

ILLINOIS REGIONAL WEATHER ROUNDUP
NATIONAL WEATHER SERVICE CHICAGO/ROMEOVILLE IL
1100 AM CDT TUE APR 28 2015

NOTE: "FAIR" INDICATES FEW OR NO CLOUDS BELOW 12,000 FEET WITH NO
SIGNIFICANT WEATHER AND/OR OBSTRUCTIONS TO VISIBILITY.

* THESE STATIONS ARE NOT UNDER NWS QUALITY CONTROL. THEY ALSO MAY NOT
  REPORT WEATHER SUCH AS PRECIPITATION OR FOG.

ILZ001-002-007-009-015-016-024-281700-
NORTHWEST ILLINOIS

CITY           SKY/WX    TMP DP  RH WIND       PRES   REMARKS
MOLINE         SUNNY     61  40  45 CALM      30.11F
STERLING*      SUNNY     57  39  51 CALM      30.14F
$$

ILZ003-004-008-010-011-017-018-281700-
NORTH CENTRAL ILLINOIS

CITY           SKY/WX    TMP DP  RH WIND       PRES   REMARKS
ROCKFORD       MOSUNNY   58  36  43 NW5       30.16F
$$

ILZ005-006-012>014-019>023-281700-
NORTHEAST ILLINOIS

CITY           SKY/WX    TMP DP  RH WIND       PRES   REMARKS
CHICAGO-OHARE  SUNNY     54  36  50 E5        30.15S
CHICAGO-MIDWAY SUNNY     57  36  45 VRB5      30.14F
AURORA         SUNNY     55  36  48 VRB3      30.14F
WAUKEGAN       SUNNY     48  36  63 NE10      30.14F
DUPAGE AIRPORT SUNNY     54  36  50 CALM      30.14S
WHEELING       SUNNY     51  34  52 VRB6      30.17S
NORTHERLY ISL    N/A     48  39  71 MISG        N/A
$$

LMZ740>746-281700-
SOUTHERN LAKE MICHIGAN

STATION/POSITION SKY/WX   TEMP    WIND        PRES    VSBY  WAVE
                          AIR SEA DIR/SP/G                  HT/PER
                          (F)     (DEG/KT/KT) (MB)    (MI)  (FT/S)
HARRISON CRIB              41     340/ 12/ 13   N/A
BURNHAM HARBOR             48      20/  8/ 10   N/A
CALUMET HARBOR             44      10/  7/  8   N/A
BURNS HARBOR               42     340/  5/  6 1022.0S
MICHIGAN CITY              44     270/  5/  6   N/A
MICHIGAN CITY 6N           41 46  300/  4/  6   N/A           1/ 4
$$

ILZ025>027-034>036-040-047-049-050-058-095>099-281700-
WEST-CENTRAL ILLINOIS

CITY           SKY/WX    TMP DP  RH WIND       PRES   REMARKS
QUINCY         SUNNY     62  39  42 NE7       30.13F
$$

ILZ028>032-037-038-041>044-048-051>054-059>061-281700-
CENTRAL ILLINOIS

CITY           SKY/WX    TMP DP  RH WIND       PRES   REMARKS
DECATUR        SUNNY     58  39  49 NE8       30.13F
PEORIA         SUNNY     60  37  42 CALM      30.14F
SPRINGFIELD    SUNNY     59  40  49 NE3       30.13F
TAYLORVILLE    NOT AVBL
$$

ILZ033-039-045-046-055>057-062-063-281700-
EAST-CENTRAL ILLINOIS

CITY           SKY/WX    TMP DP  RH WIND       PRES   REMARKS
CHAMPAIGN      SUNNY     56  37  49 VRB6      30.13F
MATTOON        SUNNY     56  37  49 NE13      30.11F
$$

ILZ079-100>102-281700-
SOUTHWEST ILLINOIS

CITY           SKY/WX    TMP DP  RH WIND       PRES   REMARKS
ALTON          MOSUNNY   57  34  41 NE8       30.13F
BELLEVILLE     SUNNY     59  42  53 NE10      30.11F
CAHOKIA*       SUNNY     60  40  47 N7        30.12F
$$

ILZ064>066-069>071-074>076-080>082-084>086-088>090-092>094-281700-
SOUTH-CENTRAL ILLINOIS

CITY           SKY/WX    TMP DP  RH WIND       PRES   REMARKS
CARBONDALE     SUNNY     58  39  49 NE10      30.10S
MARION         SUNNY     59  41  51 E12       30.11S
MT. VERNON     SUNNY     57  41  54 NE12      30.11F
$$

ILZ067-068-072-073-078-083-087-091-281700-
SOUTHEAST ILLINOIS

CITY           SKY/WX    TMP DP  RH WIND       PRES   REMARKS
LAWRENCEVILLE  SUNNY     57  37  47 NE15      30.11F
$$

ABBREVIATIONS USED IN REMARKS
   TC - TEMPERATURE IN CELSIUS
  WCI - WIND CHILL INDEX
   HX - HEAT INDEX
  VSB - VISIBILITY
$$



USA.gov is the U.S. government's official web portal to all federal, state and local government web resources and services.